Wind_Speed
52 51 51 50 51 51 51 50 50 49 48 48 48 49 49 49 48 48 48 47 47 47 47 47 46 46 46 46 45 46 46 46 46 47 48 48 48 47
52 52 51 51 51 51 51 51 50 50 49 48 48 48 48 47 47 46 46 46 45 45 45 44 44 43 43 43 44 44 44 44 44 44 45 45 44 44
52 53 52 51 51 49 49 49 49 49 49 47 48 48 46 46 45 45 44 44 43 43 42 41 40 40 41 41 42 43 42 42 42 42 42 42 41 42
52 51 51 51 50 49 48 48 48 48 48 47 47 46 46 45 44 43 42 41 39 39 38 38 38 39 40 40 41 40 39 39 39 40 41 41 39 39
50 49 49 48 48 47 47 47 47 47 47 45 44 44 43 41 41 40 39 38 37 37 37 37 38 38 38 38 38 38 38 38 38 38 38 38 38 38
46 46 46 46 45 45 45 45 45 45 44 43 41 41 40 38 37 36 36 35 35 35 35 36 37 37 36 36 36 36 36 35 35 35 36 36 36 35
43 43 43 43 43 44 43 43 43 42 42 41 40 40 38 36 35 34 35 34 34 34 34 34 34 34 33 34 34 34 33 33 32 33 33 33 33 33
40 41 42 43 43 43 43 42 41 40 39 39 38 37 36 35 34 34 33 32 32 32 32 32 32 31 32 32 32 32 31 31 30 31 32 31 31 30
36 38 40 41 41 40 40 40 39 38 37 36 36 35 34 33 32 32 31 31 32 31 31 30 30 30 30 29 30 29 28 28 29 30 29 29 28 28
34 35 36 37 37 37 36 36 36 36 34 33 33 33 32 31 31 30 30 30 30 30 29 29 28 28 28 27 28 28 27 27 27 27 27 27 27 26
32 33 32 32 32 32 33 33 32 30 29 29 28 28 28 28 27 27 27 27 27 28 27 27 27 26 26 26 26 26 26 26 26 25 24 25 24 23
30 30 30 29 29 29 29 28 27 26 26 26 26 25 25 24 23 23 24 24 24 24 24 24 24 23 23 23 23 23 23 22 23 22 21 20 21 21
29 28 28 27 26 26 25 24 24 24 24 24 24 24 23 22 21 21 21 21 21 21 21 21 21 21 21 20 19 19 19 18 18 18 18 18 19 19
26 25 25 24 23 23 23 23 23 23 23 23 22 22 21 20 19 19 20 20 20 20 19 20 19 19 18 17 16 15 15 15 15 15 16 16 17 17
23 22 22 22 22 22 22 22 21 21 22 21 21 21 20 19 19 19 20 20 19 18 18 18 18 18 16 15 13 13 13 13 14 14 13 15 15 15
20 20 20 20 20 20 20 20 19 20 20 20 20 19 19 19 19 19 19 18 18 18 18 17 16 16 15 14 13 13 13 13 12 13 13 13 14 14
17 17 17 17 17 18 18 18 18 18 18 18 17 17 17 17 17 17 18 17 16 16 16 16 16 15 13 12 12 13 13 13 13 13 12 12 13 13
14 15 15 15 16 16 16 17 17 17 16 16 16 16 16 16 16 16 15 14 14 15 15 15 14 13 12 12 12 12 12 12 12 12 12 12 12 12
14 14 14 14 14 15 15 15 15 15 14 14 14 14 14 14 14 14 13 12 13 13 13 12 11 11 10 10 10 11 11 11 11 11 11 11 10 10
13 13 13 14 14 14 14 14 13 13 13 13 12 13 13 13 13 12 11 11 11 11 11 10 10 10 10 10 10 10 11 11 11 10 10 10 9 9
11 11 12 13 13 13 13 13 12 12 12 12 11 12 12 11 11 10 10 10 10 10 10 10 9 10 10 9 10 10 10 10 10 9 9 9 9 9
10 11 11 12 12 12 12 11 11 11 11 10 10 10 10 10 10 9 9 9 9 10 10 9 9 9 9 9 9 9 9 9 9 8 8 9 9 9
10 10 10 10 10 10 9 9 10 10 10 9 9 9 10 10 9 9 9 9 9 9 9 8 8 8 8 9 9 8 8 8 8 7 7 8 8 8
Wind_Direction
270 270 271 271 271 273 274 275 277 277 277 277 278 279 280 282 283 283 283 282 282 281 281 279 278 276 275 275 275 276 276 275 275 275 274 274 274 273
269 270 270 271 272 272 274 275 276 277 277 278 279 281 282 283 283 282 283 283 282 281 281 280 278 276 276 276 276 276 276 276 276 275 275 274 274 272
270 270 270 270 272 273 274 274 275 276 278 279 280 281 282 283 283 282 283 283 282 281 280 279 277 277 277 277 278 278 277 277 277 277 276 275 275 274
271 271 270 270 272 273 273 274 274 276 278 280 280 281 281 282 282 282 282 282 281 280 280 278 278 279 277 278 279 278 278 278 278 277 276 275 275 275
271 270 269 270 272 273 273 274 274 275 278 279 280 281 281 282 282 281 281 280 279 279 279 278 279 279 277 277 278 279 278 278 279 278 277 276 276 277
270 269 269 270 271 272 272 272 272 275 276 277 278 280 280 281 281 280 281 280 279 279 281 281 281 279 277 277 278 278 279 279 280 279 278 278 279 279
270 270 270 270 271 271 272 272 273 274 275 276 277 278 279 280 281 282 281 279 279 281 283 283 282 281 280 280 280 279 279 280 281 282 280 280 281 281
270 270 271 272 271 272 272 272 273 274 274 275 276 278 279 280 281 282 280 279 280 282 283 283 282 281 282 283 283 282 282 281 282 283 284 284 283 281
272 271 271 272 272 273 272 272 272 273 273 275 276 278 279 280 279 278 278 279 280 282 282 282 282 282 282 282 281 282 282 282 283 284 283 285 283 281
275 274 273 273 273 273 272 272 273 273 273 274 275 277 278 280 280 277 276 277 280 280 281 282 282 282 281 281 281 283 283 282 285 284 283 283 282 281
274 275 274 274 273 272 271 270 272 273 275 275 275 276 277 279 278 276 276 276 279 279 279 280 279 280 280 282 283 284 285 285 285 284 283 284 283 282
275 274 273 273 273 272 272 270 270 272 274 274 274 275 278 280 278 277 277 278 279 279 279 280 281 282 282 282 284 285 285 286 286 285 286 284 283 283
274 273 272 271 271 271 272 270 270 271 272 272 274 275 277 278 277 277 277 279 279 279 280 281 282 283 284 284 284 285 287 288 288 288 288 285 284 285
273 271 271 269 270 270 270 270 269 269 270 271 273 274 274 275 275 275 277 282 282 279 279 280 281 285 286 285 284 286 291 292 292 289 287 287 289 289
271 269 268 268 268 269 270 268 267 268 269 269 271 271 270 271 274 276 279 282 283 280 280 282 282 283 283 283 284 287 291 293 291 288 287 293 293 292
269 269 269 268 267 268 267 266 266 266 266 267 268 268 269 271 273 278 280 281 280 279 280 282 283 283 278 278 281 286 289 289 288 288 287 291 293 294
267 266 266 265 265 268 267 266 266 267 266 265 265 267 270 272 275 279 281 280 280 282 283 283 284 283 280 278 279 284 287 289 290 288 284 285 292 298
267 268 267 266 268 268 268 267 268 267 263 263 266 268 270 273 275 278 281 282 282 282 282 282 282 281 278 277 281 287 289 291 293 293 289 288 289 293
266 268 268 269 269 270 269 268 268 264 261 262 266 269 271 273 276 279 280 280 281 282 280 278 276 275 273 275 281 284 289 290 292 291 290 289 289 291
267 269 269 269 270 270 269 267 264 261 261 263 267 270 272 274 276 277 279 282 281 278 274 269 271 273 275 279 283 285 287 289 292 289 284 286 290 294
268 270 272 271 270 269 268 264 260 259 260 263 268 273 274 275 274 275 280 280 278 277 274 270 272 275 278 284 288 287 286 287 289 287 286 286 289 295
272 276 277 276 273 270 267 261 255 254 258 264 268 272 274 276 275 276 277 276 275 278 275 270 273 277 281 287 291 290 289 288 285 283 285 288 288 294
277 279 279 276 273 271 263 255 249 248 253 258 263 268 271 272 271 273 276 274 273 276 275 272 272 274 280 286 290 288 286 287 288 286 285 291 296 300
Height
5625 5625 5625 5625 5624 5624 5623 5622 5621 5622 5623 5621 5619 5616 5613 5611 5609 5606 5604 5602 5600 5598 5596 5594 5593 5592 5591 5591 5591 5591 5590 5589 5589 5589 5589 5589 5589 5589
5611 5611 5611 5611 5611 5611 5610 5609 5607 5607 5607 5607 5605 5603 5600 5598 5596 5594 5592 5590 5587 5585 5584 5582 5581 5580 5580 5579 5579 5578 5577 5576 5576 5575 5575 5574 5574 5574
5596 5596 5597 5598 5598 5597 5597 5596 5595 5594 5593 5594 5591 5590 5588 5586 5584 5582 5580 5578 5576 5574 5572 5571 5570 5569 5569 5568 5567 5566 5565 5565 5564 5563 5562 5562 5561 5562
5582 5582 5582 5583 5584 5584 5584 5583 5583 5581 5580 5580 5579 5578 5575 5574 5572 5571 5569 5567 5565 5563 5562 5561 5560 5559 5558 5557 5556 5555 5554 5554 5553 5552 5551 5551 5550 5550
5568 5568 5569 5570 5571 5571 5571 5570 5570 5569 5568 5568 5567 5566 5564 5563 5562 5560 5558 5556 5555 5553 5552 5551 5550 5549 5548 5546 5545 5545 5544 5543 5542 5541 5540 5539 5539 5539
5555 5556 5557 5557 5558 5558 5558 5558 5558 5557 5557 5556 5556 5555 5554 5553 5552 5550 5549 5547 5546 5544 5543 5542 5540 5539 5538 5537 5536 5535 5534 5533 5532 5531 5530 5529 5529 5528
5543 5544 5544 5545 5545 5545 5546 5546 5546 5546 5545 5545 5545 5545 5544 5544 5543 5541 5540 5539 5537 5536 5535 5533 5532 5531 5529 5528 5527 5526 5525 5524 5523 5522 5521 5520 5519 5519
5532 5533 5533 5534 5534 5534 5534 5534 5535 5535 5535 5535 5535 5535 5535 5534 5533 5532 5531 5531 5530 5529 5527 5525 5524 5522 5521 5520 5519 5518 5517 5516 5515 5514 5513 5512 5510 5510
5522 5523 5523 5523 5523 5523 5523 5524 5524 5524 5525 5525 5526 5526 5526 5526 5525 5524 5523 5522 5521 5520 5519 5518 5516 5515 5513 5512 5511 5510 5509 5508 5508 5507 5506 5504 5503 5502
5513 5513 5513 5513 5513 5513 5514 5514 5515 5516 5516 5516 5517 5517 5517 5516 5516 5515 5515 5514 5513 5512 5511 5510 5509 5507 5506 5504 5503 5502 5501 5501 5500 5500 5499 5497 5496 5495
5505 5504 5504 5504 5504 5504 5505 5506 5507 5507 5507 5508 5508 5508 5508 5508 5507 5507 5507 5506 5506 5505 5504 5503 5502 5501 5499 5498 5496 5495 5494 5494 5493 5493 5492 5491 5491 5490
5496 5496 5496 5496 5496 5496 5497 5498 5499 5500 5500 5501 5501 5501 5501 5501 5500 5500 5500 5500 5499 5498 5497 5497 5495 5494 5493 5492 5491 5489 5488 5488 5487 5486 5486 5485 5485 5485
5488 5488 5488 5488 5489 5489 5490 5491 5492 5493 5494 5494 5494 5494 5495 5494 5494 5494 5494 5493 5493 5492 5492 5491 5490 5488 5487 5487 5486 5485 5484 5483 5482 5482 5481 5480 5480 5480
5481 5481 5482 5482 5483 5483 5484 5485 5486 5486 5487 5488 5488 5488 5489 5489 5489 5488 5488 5488 5488 5487 5486 5485 5485 5484 5483 5482 5481 5481 5480 5480 5479 5478 5477 5476 5476 5475
5474 5475 5475 5476 5476 5477 5478 5479 5480 5481 5481 5482 5482 5483 5483 5483 5483 5484 5483 5483 5483 5482 5481 5480 5480 5479 5479 5478 5478 5478 5477 5477 5476 5475 5474 5473 5472 5471
5468 5469 5469 5470 5471 5472 5472 5473 5474 5475 5476 5476 5477 5477 5478 5478 5479 5479 5479 5479 5478 5478 5477 5476 5476 5476 5475 5475 5475 5475 5474 5474 5473 5472 5471 5470 5468 5467
5463 5464 5465 5465 5466 5467 5468 5468 5469 5470 5471 5471 5472 5473 5473 5474 5474 5474 5474 5474 5474 5473 5473 5473 5472 5472 5472 5472 5472 5472 5471 5470 5470 5469 5468 5467 5466 5464
5459 5460 5460 5461 5462 5462 5463 5464 5465 5465 5466 5467 5468 5468 5469 5469 5470 5470 5470 5470 5470 5470 5469 5469 5469 5469 5469 5469 5469 5469 5468 5468 5467 5466 5465 5464 5463 5462
5455 5456 5457 5457 5458 5458 5459 5459 5460 5461 5462 5463 5464 5465 5465 5466 5466 5466 5466 5466 5466 5466 5466 5466 5465 5466 5466 5466 5466 5465 5465 5465 5464 5462 5461 5461 5460 5459
5452 5452 5453 5453 5454 5454 5455 5455 5456 5457 5458 5459 5460 5461 5461 5462 5462 5463 5463 5463 5463 5463 5463 5463 5463 5463 5463 5463 5463 5463 5462 5461 5461 5460 5459 5458 5458 5457
5449 5449 5449 5449 5450 5450 5450 5451 5452 5453 5454 5455 5456 5457 5458 5458 5459 5459 5459 5460 5460 5460 5460 5460 5460 5460 5461 5460 5460 5460 5459 5458 5457 5456 5456 5456 5455 5454
5446 5446 5446 5446 5446 5446 5447 5447 5448 5449 5451 5452 5453 5454 5454 5455 5456 5456 5456 5457 5457 5457 5457 5458 5458 5458 5458 5458 5457 5457 5456 5455 5454 5453 5453 5453 5452 5452
5443 5443 5442 5442 5442 5443 5443 5444 5445 5446 5448 5449 5450 5451 5451 5452 5452 5453 5453 5454 5454 5454 5455 5455 5455 5455 5455 5454 5454 5454 5453 5453 5452 5451 5451 5450 5450 5449